Content
SEND FEEDBACK

Daily
Averages
Monthly
Summary
Brazil

CUIABA, MATO GROSSO


Home > South America > Brazil > Mato Grosso
Elevation: 623 feet     Latitude: 15 38S     Longitude: 056 06W

WEATHER
 
SELECT A DAY
Number of Records: 167,944;   Date Range: 6/30/96 - 8/31/14
 
SHARE

PRINT THIS DATA

[ ← Previous Day ]
WEATHER ALMANAC - FEBRUARY 1, 2013
[ Next Day → ]
[ °C ]   °F
Weather ElementAverageHighLow
Temperature76.5 °F82.4 °F (11:00 am)75 °F (3:00 pm)
Dewpoint71.8 °F73.4 °F (9:00 am)69.8 °F (5:00 am)
Humidity85.3 %94 % (5:00 pm)70 % (11:00 am)
Barometer25.89 in29.86 in (11:00 pm) (7:00 pm)
Wind Speed4.3 mph13.8 mph (1:30 pm)
Weather ElementAverage
Visibility5.6 mi
Wind DirectionSSE (155.4 °)

Weather ElementTotal
Precipitation---
Cooling Degree Days13.7 (Base 65)
Growing Degree Days28.7 (Base 50)
Averaged from 29 records on February 1, 2013
WEATHER CONDITIONS BREAKOUT
WIND DIRECTION BREAKOUT
WEATHER BY HOUR - FEBRUARY 1, 2013
[ °C ]   °F
Local TimeTemperatureDewpointHumidityBarometerVisibilityWind DirectionWind SpeedGust SpeedPrecipitationEventsConditions
1:00 AM75.2 °F71.6 °F89 %29.80 inCalmClear
2:00 AM77.0 °F71.6 °F83 %29.77 inNorth (350°)4.6 mphClear
3:00 AM76.0 °F71.0 °F81 %29.75 in12.0 miNE (40°)4.6 mph
3:00 AM75.2 °F71.6 °F89 %29.77 inNE (40°)4.6 mphClear
4:00 AM75.2 °F71.6 °F89 %29.77 inCalmClear
5:00 AM75.2 °F69.8 °F83 %29.77 inNNW (340°)6.9 mphClear
6:00 AM75.2 °F69.8 °F83 %29.77 inCalmClear
7:00 AM75.2 °F69.8 °F83 %29.77 in6.2 miNNW (340°)6.9 mphMostly Cloudy
8:00 AM77.0 °F71.6 °F83 %29.80 in6.2 miCalmMostly Cloudy
8:20 AM77.0 °F71.6 °F83 %29.83 in1.9 miCalmLight Drizzle
9:00 AM77.0 °F73.0 °F85 %29.82 in12.0 miCalmMostly Cloudy
9:00 AM77.0 °F73.4 °F89 %29.83 in6.2 miCalmMostly Cloudy
10:00 AM78.8 °F73.4 °F83 %29.83 in6.2 miNorth (10°)1.2 mphDrizzle
11:00 AM82.4 °F71.6 °F70 %6.2 miNNW (330°)11.5 mphDrizzle
12:00 PM82.4 °F73.4 °F74 %6.2 miNorth (10°)10.4 mphLight Drizzle
1:00 PM80.6 °F73.4 °F79 %4.3 miWNW (290°)11.5 mphRainRain
1:30 PM77.0 °F73.4 °F89 %29.80 in1.2 miWSW (250°)13.8 mphRainRain
2:00 PM75.2 °F71.6 °F89 %1.2 miNNW (330°)6.9 mphRainRain
3:00 PM75.0 °F72.0 °F87 %29.78 in2.0 miNNW (340°)6.9 mphRainLight Rain
3:00 PM75.2 °F71.6 °F89 %29.77 in1.9 miNNW (340°)6.9 mphRainLight Rain
4:00 PM75.2 °F71.6 °F89 %29.77 in1.9 miNNW (330°)8.1 mphRainLight Rain
5:00 PM75.2 °F73.4 °F94 %29.77 in5.0 miNNE (30°)3.5 mphMostly Cloudy
6:00 PM77.0 °F71.6 °F83 %29.77 in6.2 miCalmMostly Cloudy
7:00 PM75.2 °F71.6 °F89 %29.80 in6.2 miCalmMostly Cloudy
8:00 PM75.2 °F71.6 °F89 %29.77 in6.2 miNW (320°)5.8 mphMostly Cloudy
9:00 PM75.0 °F71.0 °F83 %29.81 in12.0 miNNW (330°)4.6 mphScattered Clouds
9:00 PM75.2 °F71.6 °F89 %29.83 in6.2 miNNW (330°)4.6 mphMostly Cloudy
10:00 PM75.2 °F71.6 °F89 %29.83 in6.2 miCalmMostly Cloudy
11:00 PM75.2 °F71.6 °F89 %29.86 in6.2 miCalmMostly Cloudy
Hourly data recorded from SBCY, located miles away from Cuiaba, Mato Grosso







STORIES FROM OUR PARTNERS